GFSMW_500_spd_126.txt.gz
Wind_Speed
58 72 69 59 60 59 48 47 43 41 33 34 35 35 32 31 29 28 29 27 22 22 20 18 14 16 17 16 16 18 20 20 19 21 22 20 21 34 28 26 25 23 26
53 62 62 58 56 52 52 50 46 43 35 35 35 37 35 31 33 31 30 29 21 24 21 20 16 17 17 17 17 19 21 21 22 23 24 25 23 27 30 31 29 25 26
50 53 61 58 54 57 55 48 45 40 39 38 36 38 37 34 33 30 31 28 26 26 22 21 19 18 19 18 19 20 22 23 24 25 24 21 23 25 27 29 30 28 28
50 52 53 56 53 52 48 52 46 43 39 37 36 37 35 35 34 33 34 32 32 28 24 23 21 19 19 20 21 22 24 24 23 25 26 27 25 27 28 36 31 33 31
52 56 57 50 46 46 51 47 43 40 37 37 37 36 36 37 37 37 36 35 33 31 26 25 23 21 20 19 23 24 25 25 25 24 28 27 23 23 27 30 34 35 34
51 59 60 58 54 49 49 48 45 42 43 40 38 37 36 36 38 39 37 37 35 34 30 28 24 24 22 20 23 25 25 26 26 25 26 28 28 24 23 27 33 33 29
41 46 52 52 50 50 46 46 47 44 42 39 39 38 34 36 39 39 38 39 38 35 33 31 26 25 25 23 23 26 27 28 27 27 26 28 32 26 21 34 33 35 33
41 46 47 49 51 49 46 46 44 39 36 37 39 38 37 39 39 38 38 39 39 37 35 32 28 27 25 25 25 26 28 28 27 26 26 28 28 30 30 27 34 39 35
34 41 41 45 48 49 45 45 40 36 38 40 40 40 39 39 37 38 39 38 40 39 35 34 32 29 27 29 28 27 28 29 29 28 27 28 28 28 31 29 31 37 36
29 27 29 33 42 38 35 37 39 41 41 42 42 41 40 40 41 41 40 40 41 38 36 36 34 30 28 29 29 29 30 31 30 31 29 30 29 32 32 35 31 38 39
25 25 24 30 32 32 38 38 37 39 41 42 42 41 41 40 41 41 41 41 41 38 37 36 37 31 30 31 30 31 31 31 31 31 31 31 32 32 38 39 35 39 40
26 24 28 31 29 30 30 37 34 34 36 38 39 38 38 38 39 40 41 40 37 37 37 37 37 34 32 30 31 33 32 32 32 32 33 33 33 38 36 41 38 42 44
26 28 31 28 30 34 30 31 31 35 36 36 36 36 38 39 40 38 40 38 36 38 39 38 40 34 31 30 31 32 32 33 32 31 34 35 42 40 40 43 42 43 45
33 30 27 31 24 32 32 32 32 36 36 36 36 35 35 35 37 39 39 39 39 39 40 40 41 32 31 30 32 31 32 34 30 33 33 38 34 34 41 42 47 45 45
36 29 32 34 32 31 35 32 32 33 33 32 31 31 31 33 35 36 36 39 41 41 42 42 35 32 31 31 30 32 34 31 30 34 36 31 33 37 46 48 42 49 49
24 38 24 26 35 35 33 30 27 25 25 26 27 29 31 33 34 36 38 39 41 41 42 40 37 32 31 33 28 32 34 28 30 28 29 31 34 34 35 40 45 44 46
13 28 30 30 32 26 24 22 22 22 22 23 25 26 29 32 34 36 37 39 40 42 42 38 35 32 33 32 28 32 32 26 27 24 25 25 28 31 35 35 38 37 42
13 16 23 32 27 22 22 25 24 24 24 23 24 25 26 28 31 34 36 38 40 41 40 38 34 32 34 32 30 31 31 25 24 24 19 18 15 24 29 35 40 39 32
16 7 10 11 23 26 26 25 27 26 27 27 27 26 27 28 29 31 34 35 36 36 36 37 36 36 34 34 32 37 32 25 26 23 19 15 14 17 24 25 30 34 32
10 9 12 15 11 14 18 23 23 22 25 28 28 27 29 30 31 31 30 32 34 35 36 36 36 33 33 36 35 41 33 29 27 27 24 21 21 20 16 18 20 24 26
20 25 20 22 15 6 11 16 18 20 21 24 26 28 30 29 31 29 32 31 33 36 36 34 29 31 36 34 41 44 34 33 31 28 28 28 28 26 26 28 29 27 30
12 17 23 22 13 15 18 21 22 21 22 24 25 24 26 28 31 30 31 32 32 36 36 33 32 36 38 39 43 50 40 37 36 33 31 30 32 34 35 36 37 36 39
11 17 18 18 19 21 21 22 22 21 23 25 26 28 27 29 27 27 30 33 34 36 37 37 36 38 35 38 40 42 49 41 42 39 36 35 35 35 35 36 38 39 40
13 14 16 15 17 18 20 18 17 19 22 24 26 28 29 32 32 31 28 30 31 29 29 32 32 27 27 40 46 48 50 47 46 42 41 40 38 35 33 35 34 36 36
17 16 16 13 13 12 13 16 17 18 18 21 23 24 26 29 32 34 34 32 27 28 31 32 32 33 34 41 46 39 49 44 41 45 46 45 46 40 39 42 39 42 42
8 11 13 12 12 13 14 18 18 16 16 17 19 20 23 25 27 28 29 30 30 30 31 29 32 32 36 37 39 40 41 46 42 37 42 48 43 41 45 43 43 42 40

GFSMW_500_spd_129.txt.gz
Wind_Speed
50 55 61 75 70 65 61 66 59 47 47 45 42 38 37 36 36 35 32 31 30 26 21 21 21 19 16 14 15 18 18 19 21 20 20 20 18 24 24 31 35 29 26
55 53 57 59 78 74 69 67 66 56 49 45 40 40 39 37 40 39 34 33 31 30 23 24 23 22 18 17 16 19 19 20 21 21 24 24 21 20 21 23 35 30 26
63 56 53 49 69 82 76 72 70 66 47 46 43 41 43 40 46 36 34 33 34 34 28 28 24 24 21 20 19 20 21 21 21 23 23 24 24 26 22 22 27 35 30
63 55 51 49 57 78 79 79 74 69 52 47 43 45 44 40 41 40 40 36 37 37 32 32 26 26 24 22 21 22 22 22 23 23 26 25 26 27 23 24 26 29 35
65 52 48 49 54 63 69 80 75 66 50 44 43 46 44 44 43 44 42 40 39 38 35 32 29 28 29 25 24 24 23 22 24 25 27 26 24 27 26 24 26 27 30
57 53 50 50 68 58 54 60 62 60 56 51 50 48 44 44 45 44 43 43 40 37 36 34 29 30 31 29 27 26 24 25 24 25 26 26 26 25 28 27 26 27 28
55 50 49 51 58 54 59 55 52 47 50 47 46 45 48 44 44 44 45 44 41 37 36 34 33 32 32 30 29 28 27 26 25 26 27 26 28 27 27 29 25 20 25
42 45 46 44 56 62 61 58 61 52 48 48 43 45 45 44 44 46 43 44 42 39 39 37 36 33 35 31 31 30 30 28 26 27 27 27 27 28 31 32 31 26 32
39 40 32 37 52 56 54 52 53 50 49 50 47 45 46 48 47 43 46 45 43 41 40 39 38 36 35 33 33 32 33 31 28 29 29 29 29 29 30 31 32 31 39
34 35 36 40 46 49 50 50 47 47 45 42 39 39 42 43 44 43 43 42 42 41 40 40 38 37 37 36 35 34 33 33 30 31 31 31 32 33 30 32 30 29 27
32 24 26 30 38 37 39 43 45 46 50 43 39 41 42 42 43 42 43 42 44 40 41 41 40 38 39 38 36 34 35 34 32 31 34 33 34 35 35 34 34 33 38
21 25 25 32 33 38 40 40 44 45 42 41 42 40 43 45 43 42 42 45 41 39 41 42 39 40 40 40 39 35 35 36 34 32 35 35 37 38 35 37 39 42 39
15 15 34 32 33 33 38 43 42 46 48 45 46 45 43 44 44 44 44 43 40 40 39 40 38 41 41 41 40 36 36 38 34 34 35 37 38 37 38 37 38 38 39
21 16 20 23 25 25 24 32 30 34 41 41 40 41 42 43 43 43 41 38 37 38 38 38 40 39 40 41 42 38 39 37 34 35 36 37 39 38 38 42 46 42 41
21 16 21 21 18 21 16 25 27 31 32 35 33 31 34 37 41 42 40 41 40 42 40 39 39 38 41 43 42 40 40 37 35 37 36 38 39 40 39 47 39 41 46
4 14 29 32 25 23 21 28 24 24 26 27 29 32 35 37 39 40 40 38 35 43 41 41 40 40 41 43 41 40 39 37 36 35 35 39 38 38 44 39 41 46 46
8 6 17 39 38 37 29 30 34 32 26 26 29 31 31 32 34 35 37 38 39 38 38 39 39 40 41 40 41 39 38 37 34 34 34 38 37 39 36 37 41 38 45
12 5 9 22 33 31 33 30 29 30 27 25 24 26 28 31 33 34 35 35 34 30 37 37 38 41 41 41 41 41 38 35 35 32 34 36 34 30 23 27 35 33 35
6 6 2 13 9 22 33 31 25 23 23 23 24 23 24 26 28 28 28 30 32 36 38 36 37 37 38 38 40 42 36 36 36 30 36 35 33 26 23 22 23 34 30
21 10 9 15 13 5 25 25 24 23 22 21 21 23 25 25 25 27 27 28 29 31 33 34 33 37 39 38 40 42 37 36 36 32 34 35 33 27 27 16 18 17 24
9 9 11 10 10 11 5 20 23 23 20 20 20 21 24 26 27 27 29 28 29 30 31 32 34 37 36 38 38 40 37 35 35 34 37 33 34 31 26 25 23 19 17
10 10 8 7 9 12 14 10 14 16 18 19 19 19 20 21 21 24 30 31 32 31 31 34 35 38 36 36 36 34 32 34 36 37 37 39 37 34 31 30 25 27 27
9 10 12 11 11 15 18 18 19 18 18 20 22 21 21 22 22 22 25 28 31 34 35 33 34 36 35 36 38 36 34 36 33 36 37 43 41 39 36 35 35 36 36
17 13 11 10 12 15 17 19 20 21 21 22 24 25 27 27 28 28 31 31 31 31 33 35 36 36 39 40 41 40 39 38 35 36 42 45 44 41 41 39 39 37 36
13 14 12 11 12 15 14 14 17 18 16 15 20 26 28 28 28 28 30 33 35 36 36 36 35 37 41 42 45 39 34 35 37 38 43 43 51 45 43 42 41 38 39
6 12 15 15 17 16 17 14 16 18 17 17 18 20 20 22 24 24 25 27 29 30 31 35 36 39 40 40 41 41 40 40 45 42 35 40 40 41 44 44 45 44 43

GFSMW_500_spd_132.txt.gz
Wind_Speed
73 66 62 63 68 72 75 73 71 65 61 59 49 42 38 37 36 35 32 33 31 28 27 25 23 23 18 17 17 15 16 15 15 18 21 22 19 19 26 26 25 26 34
78 75 68 64 65 69 72 75 74 67 64 63 55 46 37 39 39 40 36 36 34 32 30 27 25 27 24 20 20 17 17 17 16 18 19 20 22 20 21 24 23 28 32
86 85 77 70 64 67 65 72 74 68 62 64 59 52 47 46 43 43 40 37 35 35 33 31 27 30 27 24 21 20 20 18 18 19 19 18 20 25 25 25 23 25 31
77 75 83 72 67 65 64 59 69 75 72 67 62 57 49 47 42 38 37 39 41 40 35 33 31 31 30 27 25 23 23 21 20 19 23 21 20 22 27 27 27 26 28
55 65 73 75 65 65 64 61 59 75 81 69 66 59 54 47 45 43 41 39 45 44 39 36 35 31 31 28 28 28 26 24 23 22 24 22 21 21 22 28 31 29 26
32 40 49 73 65 65 64 60 60 65 76 73 68 64 53 50 50 46 44 44 47 48 44 38 36 34 31 30 29 31 29 28 26 26 24 24 23 20 24 25 32 34 28
20 23 34 66 63 61 58 60 60 61 63 70 71 68 59 56 53 52 48 46 51 53 46 40 37 35 32 32 31 31 31 32 31 29 28 24 25 23 23 28 27 34 32
10 11 31 54 54 48 48 55 57 56 57 66 66 70 73 59 54 48 49 48 54 51 48 42 39 38 36 33 34 33 31 34 32 32 30 26 26 27 26 25 26 29 36
5 16 28 36 44 47 48 49 51 53 55 63 66 61 58 54 51 50 51 54 52 49 47 45 43 41 37 35 34 34 32 33 33 32 32 31 29 29 29 28 29 30 34
12 20 30 39 40 41 45 47 54 59 52 54 58 65 60 61 56 54 51 49 50 51 48 46 43 41 38 37 36 36 33 33 33 34 33 33 33 32 31 31 30 32 33
11 17 23 29 29 33 33 43 49 57 54 53 53 52 54 53 53 50 48 47 49 53 51 45 41 42 39 39 38 37 35 34 35 35 34 34 34 33 32 35 34 34 36
14 19 25 26 26 25 26 34 42 43 53 52 54 44 51 53 53 51 44 41 49 52 48 44 41 41 41 40 39 39 36 37 36 35 35 37 35 35 36 36 37 38 37
16 10 8 17 18 24 27 28 30 41 44 54 53 37 36 46 41 34 35 31 39 49 45 44 42 44 42 42 40 40 39 39 38 37 36 38 36 36 38 38 39 41 37
7 8 12 20 18 17 24 26 26 35 24 24 24 30 32 34 31 27 27 32 35 40 41 42 42 39 40 39 38 40 40 41 40 38 38 39 38 38 39 40 41 41 40
10 13 8 14 26 30 29 30 28 31 31 33 35 37 40 38 31 31 30 32 33 36 37 38 39 37 38 36 39 39 40 42 42 39 39 40 40 40 40 41 42 41 42
8 3 16 9 15 18 22 24 20 28 29 29 32 37 38 36 35 37 42 38 36 36 38 41 39 38 37 35 38 40 41 43 41 40 40 40 41 40 40 41 40 42 45
11 10 6 17 25 17 17 15 15 19 24 25 26 27 34 38 35 34 34 35 36 38 40 41 41 45 36 39 41 40 41 42 41 40 41 41 41 40 39 41 39 41 46
9 11 5 7 16 20 23 20 20 18 23 27 25 21 23 25 28 29 32 34 35 36 39 42 37 25 37 39 40 38 42 41 41 40 42 41 41 38 36 39 38 37 35
19 7 13 9 1 6 23 28 27 26 23 26 27 22 23 27 29 30 31 31 32 33 34 38 37 36 37 36 37 40 40 39 40 40 41 40 40 34 35 38 36 33 31
14 14 14 14 13 3 9 16 22 20 18 19 22 28 28 27 28 30 30 30 30 30 32 35 37 41 32 34 37 39 37 38 39 38 38 36 38 36 34 35 32 32 29
9 9 13 17 14 5 4 11 18 21 21 21 21 22 25 27 27 26 26 26 25 25 26 28 30 32 33 33 33 35 34 37 36 37 38 38 38 31 30 32 33 31 28
14 12 10 11 10 8 8 3 13 18 28 24 20 19 19 19 21 24 26 26 25 25 26 26 27 27 28 29 34 37 39 36 35 36 36 35 37 35 32 29 36 36 30
19 15 14 13 12 12 13 12 10 12 18 22 21 20 20 20 20 20 21 22 22 23 25 27 30 30 30 29 30 32 35 40 37 36 35 38 36 37 34 35 34 41 34
19 18 20 17 16 15 16 16 19 21 19 18 18 20 20 22 22 22 24 25 25 26 27 28 28 28 29 33 34 34 33 39 41 41 43 41 36 37 37 37 37 40 43
14 16 20 15 14 15 16 17 17 19 22 22 23 23 23 23 26 27 27 28 30 32 33 34 34 35 35 35 37 38 41 46 49 50 46 41 42 40 35 37 38 37 43
12 17 19 18 17 17 16 17 16 16 20 20 20 21 22 23 25 29 31 32 31 31 32 34 35 36 36 36 39 42 45 47 49 51 50 48 41 38 41 40 35 37 44

GFSMW_500_spd_135.txt.gz
Wind_Speed
88 89 89 85 78 68 76 78 81 78 70 71 67 64 60 52 39 37 40 38 36 31 28 28 27 22 22 21 19 17 15 14 14 12 13 13 13 17 21 20 27 28 29
92 89 87 90 87 78 74 78 81 84 78 72 67 63 61 51 44 40 40 40 39 35 31 29 29 26 25 24 22 21 18 17 16 15 14 14 15 15 19 21 23 28 30
62 48 49 55 66 75 77 80 77 80 83 75 70 65 64 53 50 43 43 42 39 36 33 30 30 29 27 26 26 24 22 20 19 18 16 15 16 18 17 20 22 25 28
47 53 47 51 60 64 79 82 79 74 79 76 74 69 54 55 52 46 37 41 39 38 37 35 31 31 29 28 29 27 25 22 21 19 20 17 17 18 18 20 22 27 29
50 49 44 46 39 55 70 82 78 71 71 76 73 69 65 61 54 52 44 45 40 40 36 40 34 33 31 30 31 30 27 26 24 22 21 21 19 19 19 20 22 25 30
47 38 42 38 29 42 63 80 76 69 67 66 71 70 61 61 59 52 51 49 42 41 39 43 40 34 34 33 33 33 30 29 26 25 23 23 23 22 22 20 22 24 26
38 39 36 25 17 25 52 73 72 65 63 55 59 63 65 60 58 55 54 51 47 45 41 44 44 39 37 37 34 33 33 32 28 28 26 25 26 25 24 23 22 24 28
30 32 26 16 3 19 52 67 67 61 56 54 47 52 56 66 59 56 57 56 52 48 44 48 47 44 40 40 37 35 36 34 31 29 29 27 28 30 27 26 25 26 26
22 25 21 6 16 18 44 54 57 55 54 46 49 49 52 56 62 58 53 56 55 53 52 53 51 47 44 43 40 38 38 35 32 31 30 30 30 30 30 29 29 29 29
15 16 16 6 13 26 41 44 47 49 46 42 45 47 50 53 58 64 58 56 59 60 58 59 52 48 48 46 43 42 41 37 34 32 32 32 30 30 31 32 32 31 33
12 8 12 2 14 28 35 39 41 39 39 40 45 49 50 53 56 63 63 66 60 66 63 60 52 53 51 47 47 45 41 38 37 35 33 33 32 30 32 33 32 33 34
23 6 3 10 18 27 32 34 33 35 41 43 46 46 53 47 56 61 60 64 60 65 64 60 57 55 50 49 49 43 41 39 38 37 35 34 34 33 34 34 35 35 36
22 14 11 24 28 27 29 35 37 37 40 41 45 46 45 52 58 58 57 52 59 54 55 49 49 55 51 50 47 43 42 40 38 38 37 36 36 35 36 37 37 37 37
22 17 9 19 19 22 30 29 25 26 32 39 48 41 53 62 54 59 53 49 50 48 54 49 43 43 48 49 48 46 44 40 39 39 40 39 38 37 37 39 39 40 40
18 16 6 11 27 14 18 18 17 21 21 40 46 29 28 35 44 62 50 47 49 50 40 39 42 41 39 38 41 45 48 41 39 41 41 40 38 37 39 42 40 42 42
13 18 15 2 16 29 22 23 19 24 18 31 31 38 37 25 27 31 30 37 32 26 27 39 35 29 32 31 34 36 46 39 39 40 40 39 38 39 41 42 41 42 42
14 12 16 11 9 24 27 29 27 25 26 22 16 22 25 25 25 26 26 29 28 30 28 27 27 29 30 26 34 28 31 34 36 37 38 40 40 41 42 42 42 40 42
16 14 15 14 6 8 18 17 13 13 12 14 16 18 18 17 18 22 26 26 27 28 29 31 32 31 31 30 33 37 39 34 36 38 40 42 42 42 43 41 41 37 41
17 18 15 17 13 7 7 16 18 15 9 8 12 12 15 17 15 19 26 28 32 32 31 31 32 33 35 37 36 30 38 39 41 42 39 41 41 42 41 40 38 38 43
12 12 13 17 13 13 13 7 18 19 19 17 16 19 20 19 19 20 23 25 26 28 30 32 34 35 34 35 34 37 37 38 41 41 40 41 41 40 39 37 37 36 40
13 15 12 11 5 6 7 6 12 22 19 18 16 15 18 27 25 24 22 21 23 26 29 31 31 31 31 33 34 34 31 39 38 38 39 40 38 39 37 37 37 33 35
16 20 17 15 10 8 7 9 8 17 18 19 19 18 18 22 24 24 23 23 24 25 26 27 28 29 30 30 31 32 32 34 35 36 35 35 34 36 36 37 36 38 36
20 18 21 20 14 17 17 14 12 11 15 21 22 20 18 17 18 19 21 22 23 25 26 27 27 28 29 30 29 30 29 32 33 34 36 37 35 35 35 36 38 37 41
19 21 21 23 18 20 19 18 16 17 15 15 15 19 20 19 19 19 19 20 21 23 23 25 26 26 27 28 28 30 32 34 33 35 37 35 33 38 39 41 40 40 40
12 14 21 25 22 22 22 21 20 20 20 20 19 18 19 20 20 23 23 22 23 24 24 26 27 28 30 32 33 33 33 32 35 39 37 38 42 45 47 46 43 43 39
12 10 14 23 23 22 20 21 22 23 22 22 23 24 23 23 23 24 25 26 26 26 28 29 31 32 33 35 35 34 34 35 38 41 43 45 50 52 51 51 50 43 40

GFSMW_500_spd_138.txt.gz
Wind_Speed
68 74 79 85 87 89 90 81 80 75 71 75 75 72 68 66 62 53 46 42 41 43 39 38 33 29 25 24 20 21 19 17 16 14 14 12 10 10 12 17 18 20 28
78 84 89 91 95 95 83 87 75 78 78 78 79 77 71 66 60 57 51 48 40 41 42 38 36 34 29 26 23 22 21 20 18 17 15 15 14 14 10 12 16 20 20
83 90 82 57 50 55 54 54 64 80 88 85 83 81 75 70 69 62 55 50 43 43 43 38 38 36 33 29 26 24 22 23 20 21 18 17 18 17 17 15 15 17 20
71 54 41 44 45 46 56 59 60 64 95 87 83 84 81 78 66 65 58 52 46 46 42 37 41 39 37 32 29 28 26 21 22 22 22 19 20 20 19 18 17 16 17
52 42 47 53 47 48 51 57 63 69 83 88 83 82 78 74 69 66 55 51 51 46 41 39 42 41 37 35 31 30 28 25 24 24 24 22 21 22 21 20 19 19 18
40 50 55 40 43 54 50 50 52 60 77 83 80 77 75 73 72 54 57 54 48 46 42 41 42 44 39 35 32 33 32 29 27 25 25 25 25 23 22 23 23 22 20
46 50 38 36 48 44 42 40 42 50 70 73 75 71 70 66 68 66 64 64 47 50 48 45 44 43 44 38 34 34 34 31 30 28 28 27 26 25 24 24 24 25 23
39 43 33 37 38 31 29 20 23 48 55 65 66 61 63 62 62 67 62 50 45 48 49 46 44 46 48 45 39 37 35 33 32 32 30 29 27 27 27 26 26 26 26
35 35 26 27 27 16 7 12 24 42 51 58 54 54 53 55 56 58 53 53 51 59 56 48 49 50 52 50 47 41 38 36 35 34 33 32 31 28 29 28 27 30 28
30 40 29 17 18 8 9 15 31 38 48 52 50 47 46 47 48 54 58 52 52 58 53 57 51 52 53 56 52 46 41 38 38 37 35 34 33 33 31 30 30 30 30
35 41 17 6 11 5 12 19 27 36 42 43 42 43 46 44 43 47 53 56 57 59 55 54 61 59 59 60 53 49 45 43 40 39 37 37 37 35 34 33 32 32 32
34 32 27 13 5 5 11 16 21 32 38 38 37 38 42 45 44 45 46 54 55 60 61 63 57 62 63 60 55 52 50 47 43 41 40 40 39 38 36 36 36 35 34
27 28 25 14 13 14 18 21 25 27 32 34 36 40 42 45 46 52 50 53 54 59 63 65 64 60 63 59 59 56 52 49 46 43 43 42 41 39 37 37 38 37 37
23 24 23 18 21 22 23 26 25 29 32 36 38 39 43 44 45 48 50 56 57 58 62 60 59 57 58 62 65 60 54 50 47 45 45 44 42 40 40 39 38 38 38
22 20 25 22 8 29 31 27 29 36 39 40 40 40 42 42 43 48 52 46 48 51 54 54 51 55 54 52 54 48 53 51 49 47 47 45 42 43 42 40 38 40 40
26 15 20 24 13 9 21 18 29 37 43 41 44 40 29 36 42 49 58 52 44 52 51 47 51 52 55 57 49 50 55 54 50 52 51 49 43 43 43 42 40 41 41
21 12 18 17 16 4 22 25 26 29 18 9 17 31 33 18 35 43 52 55 47 61 57 47 45 49 34 38 40 36 37 38 39 43 50 55 42 45 44 43 41 41 42
19 20 21 18 23 13 7 12 27 25 24 21 17 20 29 21 15 11 21 31 31 41 62 46 36 37 33 30 31 28 38 36 27 35 41 40 40 42 41 42 41 42 43
16 18 19 13 17 14 14 7 12 21 17 14 16 18 18 12 9 9 12 14 16 17 18 28 29 26 24 26 26 32 31 21 29 32 37 40 40 40 42 42 41 42 42
24 20 17 11 12 13 8 9 6 14 14 15 13 11 11 12 13 13 13 15 18 20 21 23 26 26 27 27 28 28 33 36 31 32 38 40 41 39 39 40 42 43 43
22 22 22 21 12 9 10 9 8 8 16 15 16 15 16 17 15 16 17 17 18 19 21 22 24 26 29 28 30 32 35 36 36 38 39 37 39 41 41 41 42 43 43
22 22 20 20 18 16 13 12 10 10 12 16 12 12 12 13 17 22 18 17 17 17 18 20 22 24 26 28 28 32 32 34 35 34 36 39 40 39 39 38 40 42 39
24 24 22 22 24 23 23 17 15 14 12 15 17 14 15 15 15 16 19 21 22 22 21 22 23 23 25 27 28 33 32 34 36 36 36 37 38 38 37 40 38 39 39
23 22 23 23 23 25 24 22 22 19 16 15 16 21 19 16 15 17 20 22 24 26 28 27 28 28 29 29 30 31 33 33 34 34 34 35 37 38 37 38 39 40 38
24 21 18 19 23 25 27 24 23 25 22 20 18 18 20 23 22 21 22 24 24 24 25 26 27 27 27 27 28 28 28 29 29 31 32 34 37 39 42 39 41 42 43
24 24 19 15 18 24 26 25 24 26 25 23 22 23 22 22 23 23 24 26 26 27 26 25 25 24 24 25 25 26 28 28 29 31 32 34 36 40 42 43 46 50 53

GFSMW_500_spd_141.txt.gz
Wind_Speed
54 57 60 62 66 68 70 74 79 79 83 81 80 78 73 65 67 69 64 55 53 47 41 43 45 40 37 33 31 25 25 23 20 19 18 16 15 14 15 15 17 18 19
55 59 63 69 74 78 82 85 91 93 95 94 80 84 83 77 67 71 68 62 57 52 41 43 45 44 39 38 33 28 27 23 22 21 20 19 18 16 14 15 15 15 16
59 63 71 77 83 87 84 67 66 60 68 71 75 87 85 81 79 71 73 67 61 56 47 41 41 44 43 41 35 32 29 26 23 22 21 22 21 19 17 17 15 15 16
61 69 74 77 73 54 50 55 58 61 56 56 53 85 94 92 83 74 74 73 64 59 51 49 42 42 46 41 37 35 32 29 24 23 22 24 23 22 20 19 18 16 16
65 68 63 56 50 50 55 54 54 56 55 58 59 61 86 89 87 83 76 81 68 61 56 50 43 40 45 42 39 36 33 32 29 24 24 23 23 24 23 21 19 20 17
63 53 47 52 52 62 55 48 58 60 62 63 61 65 68 76 88 84 79 74 70 63 64 50 43 42 45 44 38 37 35 34 33 28 25 23 24 26 26 24 20 22 20
59 41 43 51 52 61 52 56 53 51 53 56 60 67 64 65 85 82 79 76 69 70 62 54 43 45 43 42 38 36 37 37 34 31 29 27 25 26 27 28 27 23 23
54 34 43 51 60 47 46 47 45 38 40 43 51 58 64 61 76 81 81 78 80 72 59 51 44 45 42 42 41 38 39 38 37 33 31 31 28 27 27 28 30 28 27
42 39 44 49 61 43 42 40 33 27 23 21 41 45 57 62 70 76 76 73 74 61 61 51 46 46 47 45 44 42 40 39 37 37 34 34 33 30 28 29 29 31 30
37 38 42 46 53 33 33 29 20 16 7 6 22 35 43 53 63 69 72 67 62 61 53 50 54 52 53 53 51 45 44 43 42 38 39 36 35 34 31 31 30 32 32
36 37 36 41 41 20 22 17 11 4 2 15 25 33 43 50 56 59 65 55 48 62 52 63 52 54 53 54 55 52 49 48 49 41 40 40 38 38 35 33 33 32 34
33 32 36 38 33 17 16 4 3 6 13 18 24 31 36 37 46 49 49 42 36 29 39 44 49 49 54 57 57 56 53 54 48 45 48 44 43 40 38 37 36 36 37
31 29 30 31 30 12 14 9 7 9 13 20 24 28 34 31 35 39 43 42 41 44 46 44 54 49 52 57 49 56 59 55 51 50 52 49 46 44 42 40 39 39 41
32 29 30 29 30 18 16 19 12 14 15 18 21 27 31 32 29 32 35 34 38 43 48 50 53 55 57 57 54 55 55 50 52 53 58 52 48 48 46 43 42 42 43
34 28 22 23 28 24 14 23 20 19 20 22 24 27 28 31 32 35 36 39 41 43 46 50 53 57 61 61 63 57 55 51 58 60 61 60 51 51 46 45 44 44 45
34 27 23 24 25 20 12 17 26 25 23 24 28 31 31 32 34 36 37 40 42 48 50 56 53 57 60 62 55 57 56 56 60 57 53 58 52 46 46 47 46 46 47
34 33 24 22 22 22 17 10 23 37 32 31 31 33 37 41 42 43 40 46 51 54 42 59 51 51 51 51 52 54 53 51 52 50 49 46 51 56 54 52 49 49 48
32 34 27 24 17 22 22 14 5 22 43 35 32 35 39 50 48 47 42 44 46 49 57 45 49 47 49 51 49 44 44 46 50 54 49 49 49 52 59 54 54 52 51
32 34 30 28 20 14 19 17 10 7 19 22 25 26 15 29 40 30 30 33 36 41 47 38 44 49 53 47 46 48 57 60 44 46 48 34 47 41 48 57 59 47 43
33 35 29 32 26 16 13 18 17 9 10 19 28 22 19 26 28 17 19 19 27 40 40 35 40 50 57 53 53 41 25 33 30 36 35 37 30 29 31 34 38 39 41
35 33 33 28 29 23 18 15 16 14 10 12 15 12 13 17 18 19 21 23 17 15 18 24 25 31 36 39 29 30 22 31 32 18 27 27 27 32 37 37 38 38 40
35 35 34 32 26 27 24 20 18 17 13 13 14 21 18 18 18 17 16 19 19 19 20 21 21 24 24 26 30 30 30 31 32 30 33 31 33 38 40 39 38 39 41
35 35 36 34 28 26 27 25 23 22 19 14 17 18 15 15 15 16 22 20 17 20 22 25 28 29 29 30 31 29 33 36 38 34 31 32 37 37 38 38 39 38 38
37 34 35 30 27 27 26 27 26 26 23 19 16 17 21 18 18 19 19 19 22 22 22 24 26 27 27 29 32 33 34 37 39 36 35 38 39 41 38 36 36 34 37
37 33 33 28 25 23 24 26 25 25 23 22 20 20 20 23 21 19 20 21 21 22 24 26 27 28 29 30 30 31 32 34 36 36 36 35 35 35 37 38 37 39 42
33 31 31 28 24 21 21 23 24 27 25 23 22 23 23 21 22 24 24 24 23 23 24 25 26 26 27 27 28 30 32 32 31 31 32 33 33 33 34 35 35 37 41

GFSMW_500_spd_144.txt.gz
Wind_Speed
44 45 44 47 49 53 57 61 62 65 68 69 68 70 71 71 69 64 61 58 58 58 49 44 41 37 35 35 38 35 35 31 29 23 22 20 18 17 15 15 15 15 15
46 47 48 51 54 58 63 66 68 70 76 78 79 80 80 80 80 78 74 67 61 63 55 48 45 40 38 39 38 39 37 35 29 25 22 22 20 19 16 15 15 13 13
44 48 50 53 59 64 69 74 77 78 78 69 65 67 74 66 72 77 82 83 71 64 65 55 50 44 39 41 39 41 39 38 33 26 24 23 23 20 19 16 16 14 15
47 50 53 57 62 67 74 78 76 64 56 60 63 67 69 64 58 83 83 76 85 84 73 66 57 50 42 39 39 40 42 40 36 31 25 26 26 23 22 20 18 17 17
51 53 57 61 65 72 78 67 56 52 59 64 65 65 68 67 69 59 88 88 81 74 87 72 64 55 47 42 40 40 43 41 38 35 30 27 26 24 24 23 20 18 19
50 55 60 65 70 70 57 54 50 63 52 51 56 63 66 66 60 62 51 84 89 83 57 71 70 62 52 48 44 39 46 44 40 38 34 29 27 25 27 25 23 22 19
52 57 63 68 70 59 52 54 59 57 55 57 54 57 59 60 66 60 51 48 90 87 79 71 76 69 55 49 45 40 46 45 41 38 36 35 31 27 27 27 28 25 23
53 57 63 65 55 52 54 57 59 47 47 46 46 44 48 49 56 63 55 49 80 85 92 75 77 76 58 52 48 41 43 45 45 40 36 35 35 31 28 28 29 29 27
52 56 60 51 48 46 48 57 46 42 41 40 36 37 38 39 48 54 62 50 49 91 90 73 62 64 61 55 50 42 43 48 45 42 39 36 38 36 31 31 31 32 28
52 55 51 44 45 46 48 46 43 38 35 32 30 25 19 32 43 54 63 45 65 59 96 73 50 69 66 56 51 44 43 50 48 45 42 39 37 38 36 35 32 33 32
50 54 48 38 44 44 47 43 35 34 28 26 23 19 9 14 33 46 55 45 46 70 80 71 51 44 66 53 51 47 45 48 50 50 45 41 38 36 36 39 37 33 34
48 50 43 35 41 46 42 35 28 29 24 20 19 15 10 1 19 29 35 39 44 73 84 75 61 57 60 54 53 49 46 45 49 52 50 44 40 36 36 37 39 39 36
45 44 40 35 37 37 36 30 24 24 23 12 13 7 10 7 15 23 24 31 37 56 64 68 53 56 52 55 53 51 50 47 46 49 48 46 44 43 39 39 41 44 44
42 44 37 37 33 37 32 29 23 20 22 14 8 10 10 9 13 12 31 31 51 59 66 73 65 67 64 63 55 55 52 47 45 46 47 48 46 46 44 44 46 47 48
40 40 36 35 34 34 33 26 23 21 21 21 14 12 12 13 14 21 15 18 27 45 22 39 65 57 61 62 54 54 48 47 50 50 47 42 44 45 48 50 47 52 49
38 39 36 36 34 33 36 27 20 23 23 25 22 19 18 18 18 19 19 23 23 31 21 25 37 35 42 56 56 52 52 52 50 51 47 47 46 48 51 54 59 58 57
37 39 37 33 34 32 28 29 23 16 25 25 28 26 24 24 25 25 25 23 21 23 28 26 36 36 36 42 50 52 52 50 50 49 49 48 49 52 55 56 52 47 47
37 39 39 33 33 32 30 26 22 18 15 25 30 32 30 29 30 31 31 29 29 29 30 33 34 34 35 36 38 47 53 53 53 52 52 52 52 46 41 46 47 38 48
37 38 39 36 33 33 30 26 22 24 21 13 18 39 37 37 41 38 41 37 36 37 36 38 40 41 39 37 46 46 45 45 45 48 49 46 42 46 51 56 48 50 37
40 40 39 37 34 36 32 29 25 22 23 19 11 18 24 29 33 29 31 40 41 40 36 36 39 43 44 40 40 36 45 42 45 44 50 47 53 65 60 56 44 41 48
41 41 40 38 36 36 32 31 30 26 21 21 14 13 20 27 31 30 29 33 38 33 35 29 31 40 36 38 38 35 42 46 46 54 43 39 38 30 30 31 41 36 31
43 42 40 40 37 37 34 29 31 31 25 21 20 14 15 17 26 27 28 24 27 23 20 22 18 29 40 38 42 30 32 30 38 30 29 29 27 27 28 27 27 31 31
44 43 42 41 39 38 35 30 30 32 30 25 21 20 17 18 22 18 16 19 25 28 28 24 24 22 15 22 41 41 35 28 32 34 25 26 30 25 26 25 30 32 32
45 43 43 42 38 35 31 27 29 29 29 26 24 22 19 20 20 15 16 19 21 19 19 21 20 25 29 28 24 30 27 29 30 30 29 33 32 31 30 30 37 38 38
40 38 37 36 34 31 30 26 24 24 26 27 25 22 23 21 22 22 18 19 20 26 26 25 25 27 29 28 28 31 32 31 33 40 41 37 35 34 39 36 36 35 36
28 27 28 26 25 27 27 27 20 21 23 26 25 22 22 23 23 23 26 23 22 23 25 28 28 28 27 28 29 31 31 33 35 37 35 34 32 31 33 35 34 35 36

GFSMW_500_spd_147.txt.gz
Wind_Speed
41 43 42 40 39 41 43 46 49 53 57 60 61 62 62 63 66 66 65 62 59 55 57 52 47 45 41 36 36 33 34 34 35 30 25 27 28 26 21 17 16 16 14
42 42 42 42 44 46 48 51 55 58 63 66 69 71 70 70 70 68 68 69 70 65 61 58 53 49 47 42 40 36 35 37 36 36 29 25 28 29 24 18 17 15 13
41 41 41 42 43 46 51 55 61 65 69 75 78 81 79 76 77 78 76 76 74 73 71 65 62 59 56 49 43 42 37 39 37 39 34 27 28 29 27 22 18 17 17
44 43 44 44 45 48 55 61 66 71 76 81 74 69 63 57 59 61 66 67 75 77 78 74 69 68 64 57 47 45 42 41 38 37 39 32 30 28 29 25 22 21 19
44 44 46 46 49 52 58 64 72 75 69 51 50 48 57 59 54 59 56 57 58 81 83 83 77 73 79 63 58 50 46 43 41 37 41 38 33 28 29 29 27 25 22
44 44 44 47 49 55 61 69 70 59 52 52 58 51 50 52 53 54 56 56 63 61 81 92 87 90 70 76 63 53 49 45 39 39 43 40 34 28 30 31 30 29 27
43 44 44 46 51 56 63 69 58 53 50 53 47 48 51 55 57 58 58 59 59 61 66 80 96 98 72 87 69 62 52 48 44 39 42 41 36 32 31 32 31 31 30
44 45 45 47 53 58 65 63 51 52 57 42 42 47 53 52 50 52 53 60 67 60 64 66 87 97 96 57 72 70 57 52 49 41 46 46 39 35 33 33 34 32 31
42 44 45 48 53 56 61 55 49 50 58 38 38 41 48 46 40 41 46 47 58 69 66 67 63 94 78 78 72 67 60 56 52 44 46 47 43 39 34 34 35 35 31
42 43 46 49 51 53 60 50 50 51 51 41 40 39 44 41 32 20 22 35 50 66 70 71 63 84 89 80 62 72 66 60 55 48 49 48 44 42 36 33 36 35 32
43 45 46 48 49 52 59 48 47 49 51 41 40 38 37 38 27 15 21 29 43 57 62 57 55 55 73 95 61 74 72 62 56 50 53 46 44 43 37 34 35 33 33
43 43 44 46 50 52 56 50 42 45 48 41 38 37 32 32 22 11 9 18 30 47 42 41 55 52 79 70 65 70 61 65 54 51 56 46 45 43 38 35 34 34 35
40 40 43 46 49 50 53 49 41 44 46 42 37 34 33 27 15 14 2 14 24 29 39 33 27 56 76 77 84 66 40 59 54 56 49 47 49 47 40 34 35 36 37
38 40 42 44 47 48 50 50 41 44 47 41 36 33 28 29 22 17 8 8 12 16 19 22 25 31 62 62 65 46 54 59 59 55 51 52 51 45 39 36 36 40 43
41 41 40 41 43 46 47 49 42 43 46 37 36 31 28 25 27 25 21 13 6 14 5 27 24 31 37 70 38 53 57 59 57 54 54 49 43 39 38 38 38 42 43
41 40 39 40 41 43 45 46 43 39 41 39 36 32 28 23 24 25 26 22 15 8 9 23 28 35 49 71 51 60 58 56 57 52 54 50 43 39 39 36 38 41 45
39 39 39 40 40 42 44 45 42 37 37 37 36 33 29 27 25 23 24 24 23 19 10 24 20 20 45 57 50 55 57 58 59 55 54 47 40 48 47 40 40 44 46
40 39 39 39 40 41 43 42 43 40 36 35 32 33 36 32 31 27 24 27 22 15 15 22 35 22 12 52 64 59 52 60 63 58 56 50 51 52 45 43 44 45 45
40 40 40 40 41 42 43 42 40 42 38 35 31 31 29 30 30 30 33 33 28 22 17 17 18 17 21 19 46 28 33 42 48 58 56 51 52 50 49 50 45 49 45
41 42 42 43 43 43 44 44 41 40 40 35 33 29 30 23 23 24 21 26 31 31 31 29 26 23 23 26 25 27 24 26 39 45 50 52 48 50 49 46 44 48 51
43 44 46 47 46 46 47 48 46 38 40 36 33 29 28 26 20 20 23 22 24 22 25 29 28 28 30 33 34 35 33 34 34 35 41 41 46 42 45 47 44 41 50
46 48 49 50 50 49 49 49 48 43 39 38 33 33 29 26 20 16 20 25 28 21 22 24 26 23 23 24 32 37 37 36 44 35 37 38 36 39 46 46 53 51 49
50 52 52 52 52 51 49 48 47 45 39 36 33 34 31 24 22 17 16 17 22 23 21 21 19 20 22 25 24 29 31 31 39 42 40 46 43 45 43 40 36 31 36
52 52 52 50 49 47 44 42 40 37 32 32 31 32 30 25 23 19 16 18 19 22 28 27 27 27 27 26 24 25 30 38 40 36 33 31 35 33 32 37 30 27 26
46 44 41 38 36 33 31 28 27 27 27 29 29 29 29 26 24 20 18 19 18 16 18 19 19 28 27 28 26 29 31 27 37 37 33 28 28 29 30 31 35 32 27
28 28 28 26 24 22 21 21 22 23 26 25 24 26 25 24 24 23 19 19 23 21 20 18 20 21 22 20 21 21 21 22 26 37 34 31 33 39 40 33 32 31 35

GFSMW_500_spd_150.txt.gz
Wind_Speed
25 32 35 36 37 39 40 42 44 46 48 50 53 55 57 59 59 61 63 64 64 64 63 61 58 55 56 55 47 45 42 38 32 30 26 25 26 26 26 25 23 20 19
31 32 35 38 38 39 40 41 43 47 50 53 57 61 64 66 71 72 71 70 70 68 68 70 67 61 59 60 56 48 46 43 39 31 29 30 26 27 25 26 24 22 21
26 31 36 37 38 39 41 44 47 50 54 59 63 67 74 79 75 78 80 82 79 76 76 71 73 73 68 63 59 56 50 48 44 35 34 30 26 27 25 25 26 23 22
27 34 39 41 41 42 44 47 47 51 57 65 67 74 66 48 48 51 50 59 70 79 78 76 75 78 78 71 61 59 54 54 48 44 39 33 32 30 26 25 25 26 25
30 36 41 44 43 44 44 44 47 54 60 66 73 58 48 56 56 50 49 54 53 58 67 77 82 80 82 82 72 64 64 59 54 47 41 36 35 32 31 25 26 27 27
38 39 42 44 45 45 44 46 50 57 62 69 65 50 60 42 35 38 39 46 51 61 69 72 78 85 87 88 81 74 69 67 59 52 45 41 38 35 31 28 28 29 28
41 42 44 47 46 44 45 47 52 58 63 68 60 54 48 40 39 46 49 58 61 60 65 70 69 82 94 92 91 85 71 75 70 61 48 42 40 40 38 36 31 28 29
39 40 46 47 45 45 44 47 53 58 62 65 56 55 45 40 42 47 52 60 51 55 62 72 73 74 73 96 97 87 77 81 75 67 55 46 45 44 41 39 33 31 29
38 43 45 47 46 44 45 47 54 58 60 64 54 55 51 40 39 44 54 52 45 48 55 66 72 77 76 70 96 105 84 71 75 74 61 52 48 48 44 44 39 35 31
41 43 46 46 46 45 46 49 53 56 58 62 51 54 52 40 40 46 44 41 30 21 32 48 64 70 78 76 80 98 102 88 59 73 66 57 53 49 48 46 43 39 34
42 42 46 45 46 45 46 48 50 55 57 58 48 52 53 38 35 38 40 36 28 20 23 34 51 64 71 68 71 88 97 91 74 74 72 61 58 50 52 48 46 42 38
41 43 44 45 45 46 45 47 49 54 56 55 49 48 54 41 31 33 37 23 28 20 14 26 40 57 61 68 60 58 93 98 86 80 74 69 62 54 54 51 48 43 40
44 44 44 44 44 43 43 46 49 53 55 54 51 46 51 46 32 30 27 23 20 20 11 14 29 45 54 58 57 46 55 97 83 70 78 72 62 56 53 52 49 43 42
44 44 43 42 41 43 43 46 49 52 54 54 51 44 45 46 33 31 30 26 12 12 14 11 22 32 46 55 62 57 50 81 90 92 76 70 65 57 53 53 50 45 44
43 42 42 40 44 45 45 46 47 49 52 52 51 47 42 46 36 30 29 28 23 23 12 15 23 35 36 51 68 55 52 65 79 77 77 68 63 56 53 55 53 48 46
42 41 42 43 45 46 46 46 47 48 49 51 50 47 43 42 42 33 29 27 22 22 30 10 7 11 12 25 33 46 57 59 79 73 51 59 65 58 59 59 54 49 49
41 43 43 44 45 46 46 47 47 48 48 50 49 49 45 40 43 40 28 26 23 17 23 21 17 10 11 12 18 19 48 57 52 81 54 49 64 62 63 59 58 55 52
42 43 44 43 45 46 47 48 48 47 48 49 50 49 46 40 40 42 32 24 23 22 20 17 10 6 9 21 23 31 31 48 59 64 55 57 59 60 58 57 58 48 46
41 42 42 43 46 48 49 48 48 48 48 50 52 49 45 40 37 37 36 25 24 27 24 19 14 20 4 4 25 36 35 50 49 46 52 57 56 53 52 54 50 43 46
40 41 43 45 48 49 49 49 50 50 51 53 53 51 45 40 34 35 34 25 16 16 15 18 22 15 11 6 7 27 52 50 50 47 61 59 59 55 54 54 46 46 52
41 42 44 47 50 51 52 53 54 54 55 56 56 55 47 40 33 32 32 24 19 18 16 13 19 24 20 18 19 15 44 55 48 44 55 42 54 62 58 61 37 62 66
42 45 48 51 54 56 58 58 59 59 59 58 57 54 50 39 32 30 28 23 19 21 20 22 16 18 22 25 23 25 24 40 36 42 46 44 46 48 56 44 51 54 49
45 50 53 56 58 60 60 60 59 56 54 52 48 43 40 34 30 27 26 22 18 18 16 21 17 16 19 22 25 25 30 33 32 32 31 35 43 46 48 46 46 45 47
50 53 55 56 55 52 50 49 45 42 38 33 30 28 27 27 27 26 23 21 18 15 13 18 18 22 21 23 23 20 19 25 37 38 38 35 41 38 37 45 42 46 46
49 48 44 40 38 37 36 33 30 28 27 25 25 26 26 26 25 24 22 20 19 17 12 12 13 20 26 25 27 27 23 24 30 36 34 37 41 39 38 43 46 48 49
36 32 30 30 31 31 30 28 30 28 26 22 25 25 25 22 23 24 23 21 21 16 16 13 14 14 18 25 31 29 34 26 22 25 36 38 39 38 36 39 43 39 40